RH
29 33 35 36 36 36 36 35 34 35 36 40 43 42 37 36 37 36 30 26 23 20 17 16 16 15 15 15 16 17 18 20 23 26 25 28 33 36 38 45 54 64 77
30 33 35 37 37 39 40 38 37 38 41 45 47 44 39 38 39 36 30 26 23 20 18 17 17 16 16 16 17 19 23 29 32 37 38 34 37 46 47 51 55 59 77
29 33 36 37 39 42 44 43 41 42 46 49 48 44 41 42 40 35 30 26 23 21 19 18 17 16 16 17 18 21 27 33 39 44 48 47 44 44 43 42 49 57 73
29 33 37 39 41 45 48 46 45 47 52 52 48 45 44 42 40 33 29 25 23 21 19 17 15 13 14 15 16 19 26 35 42 46 47 48 48 52 44 46 44 51 70
28 33 37 40 45 50 51 49 49 53 55 53 50 49 46 44 40 33 29 25 23 20 16 14 13 14 15 15 16 18 24 34 42 46 48 43 42 48 52 51 53 52 75
29 34 40 45 51 53 51 51 55 57 56 54 53 52 47 45 38 33 28 25 21 16 14 14 14 17 17 16 17 20 24 31 37 44 47 43 40 47 56 56 49 54 64
32 37 43 48 52 52 52 56 59 58 57 56 55 52 48 43 36 31 27 23 18 16 16 16 17 20 19 19 19 21 25 29 33 39 45 43 41 44 55 59 52 55 64
34 38 43 48 50 52 57 59 60 59 58 57 57 51 48 40 34 29 25 21 19 17 17 18 19 21 20 20 20 20 23 30 33 35 40 44 40 44 49 61 58 56 66
37 41 45 46 51 56 59 61 62 60 59 60 54 51 45 38 31 26 23 21 19 19 19 20 21 21 20 19 20 20 22 26 32 34 35 43 42 44 51 64 60 61 69
40 43 44 49 55 58 60 62 62 61 62 58 53 48 40 33 27 25 23 21 20 20 21 22 21 19 19 20 20 20 22 26 30 35 37 42 43 46 52 65 62 62 71
42 43 50 55 58 61 62 64 65 64 61 56 51 42 34 29 27 24 22 21 22 22 21 20 19 20 21 22 24 24 25 29 31 36 39 41 45 46 49 65 66 62 71
44 48 53 58 60 61 62 65 64 63 58 54 44 36 31 28 25 23 22 23 21 21 21 21 22 25 28 31 32 32 30 31 32 36 40 43 47 48 48 62 70 61 67
49 51 55 60 59 60 65 66 65 62 56 46 37 33 29 26 24 23 23 22 21 22 23 27 32 37 40 44 45 44 40 36 35 36 42 45 51 50 50 53 69 65 62
50 52 55 57 60 64 65 65 65 59 48 38 34 30 27 25 24 23 23 21 23 25 30 38 44 50 52 57 57 55 51 45 41 40 45 47 52 54 52 50 62 70 62
51 54 58 61 63 67 67 68 62 49 40 36 32 29 26 25 24 23 22 23 28 34 41 48 55 59 62 67 67 64 60 52 47 44 45 50 53 55 54 53 52 70 66
55 62 63 63 68 69 70 64 51 42 39 34 30 28 26 25 25 22 24 28 34 40 47 54 58 61 65 68 69 68 62 57 52 48 48 53 55 57 56 55 53 59 72
60 64 66 68 70 72 68 53 44 41 36 32 29 27 26 26 23 24 28 33 38 44 51 57 63 67 67 67 66 66 62 59 56 53 51 54 61 60 57 56 54 50 65
65 67 69 71 73 70 56 47 44 39 35 32 29 28 27 24 24 27 31 36 42 49 54 63 71 75 75 76 74 73 69 65 62 59 58 58 61 64 59 56 56 52 52
69 71 75 76 72 59 50 47 43 39 35 32 30 29 26 25 26 29 34 39 45 53 60 68 73 78 82 83 83 80 75 73 69 66 64 63 64 63 63 60 58 56 48
74 77 80 77 65 54 50 46 42 39 35 32 31 28 27 27 28 32 35 41 49 56 62 69 75 81 87 88 87 86 85 80 75 74 71 67 66 65 65 63 60 57 50
79 82 80 70 60 53 49 44 42 38 35 34 30 27 28 28 31 34 37 43 49 59 65 71 75 79 86 90 90 91 91 89 85 81 75 73 70 68 65 64 61 58 55
83 82 75 64 57 53 49 45 41 38 37 33 29 29 29 30 31 34 39 46 51 60 65 70 76 80 85 89 91 92 93 93 92 88 83 77 72 69 67 65 62 61 58
85 79 69 60 56 52 49 44 41 39 36 31 30 29 30 31 33 35 39 46 52 60 68 69 74 80 84 87 90 93 93 93 94 93 90 85 78 74 71 68 66 62 59
83 73 63 60 55 52 48 44 42 39 35 32 30 31 31 32 34 37 41 48 53 58 66 72 75 79 85 89 92 93 94 95 96 96 95 91 85 77 74 71 67 62 59
75 65 63 57 55 51 47 45 43 39 34 32 31 32 32 33 34 37 43 49 58 63 67 74 80 82 86 92 95 97 97 96 96 96 96 94 89 83 76 73 68 64 59
68 65 60 57 55 51 48 46 42 38 34 32 33 34 33 34 35 36 41 56 62 68 74 78 85 86 92 95 97 96 97 97 98 96 96 96 94 86 79 75 69 65 59